This is the latest recevied weather packets stored in our database for station/object W6ORV. If no packets are shown the sender has not sent any weather packets the latest 10 day(s).
| Time | Temp. | Humidity | Pressure | Rain* | Wind** | Luminosity | Snow |
|---|---|---|---|---|---|---|---|
| 1777500277 | 26.11° C | 34% | 4299.8 hPa | 0 mm | - | 686 W/m² | - |
| 1777499973 | 26.11° C | 33% | 4299.8 hPa | 0 mm | - | 694 W/m² | - |
| 1777499670 | 26.11° C | 34% | 4299.7 hPa | 0 mm | - | 683 W/m² | - |
| 1777499367 | 25.56° C | 33% | 4300 hPa | 0 mm | - | 684 W/m² | - |
| 1777499065 | 26.11° C | 34% | 4300.1 hPa | 0 mm | - | 693 W/m² | - |
| 1777498761 | 26.67° C | 34% | 4300.1 hPa | 0 mm | - | 708 W/m² | - |
| 1777498458 | 26.67° C | 33% | 4300.2 hPa | 0 mm | - | 704 W/m² | - |
| 1777498154 | 26.11° C | 35% | 4300.1 hPa | 0 mm | - | 719 W/m² | - |
| 1777497852 | 26.67° C | 34% | 4300.1 hPa | 0 mm | - | 730 W/m² | - |
| 1777497548 | 26.11° C | 34% | 4300.2 hPa | 0 mm | - | 744 W/m² | - |
| 1777497244 | 26.11° C | 34% | 4300.3 hPa | 0 mm | - | 716 W/m² | - |
| 1777496941 | 25.56° C | 36% | 4300 hPa | 0 mm | - | 750 W/m² | - |
| 1777496638 | 25.56° C | 36% | 4300.2 hPa | 0 mm | - | 751 W/m² | - |
| 1777496334 | 26.67° C | 34% | 4300.5 hPa | 0 mm | - | 743 W/m² | - |
| 1777496030 | 26.11° C | 34% | 4300.2 hPa | 0 mm | - | 715 W/m² | - |
| 1777495726 | 26.11° C | 34% | 4300.4 hPa | 0 mm | - | 704 W/m² | - |
| 1777495423 | 26.11° C | 34% | 4300.8 hPa | 0 mm | - | 693 W/m² | - |
| 1777495119 | 26.67° C | 35% | 4300.6 hPa | 0 mm | - | 716 W/m² | - |
| 1777494816 | 27.22° C | 38% | 4300.8 hPa | 0 mm | - | 735 W/m² | - |
| 1777494513 | 26.67° C | 34% | 4300.9 hPa | 0 mm | - | 770 W/m² | - |
| 1777494211 | 26.11° C | 35% | 4300.8 hPa | 0 mm | - | 764 W/m² | - |
| 1777493907 | 25.56° C | 34% | 4300.9 hPa | 0 mm | - | 774 W/m² | - |
| 1777493606 | 23.89° C | 36% | 4300.9 hPa | 0 mm | - | 773 W/m² | - |
| 1777493303 | 23.89° C | 36% | 4300.8 hPa | 0 mm | - | 763 W/m² | - |
| 1777492999 | 24.44° C | 36% | 4301.1 hPa | 0 mm | - | 726 W/m² | - |
* Rain latest hour (hover to see other rain measurements)
** Current wind speed in m/s (hover to see current wind gust speed)